Volver al catálogo

OPS 4682 DEB

ActivoPO
NORAD 51498·DEBRIS·🇺🇸 United States

Lanzado Apr 3, 1965 desde Vandenberg Space Force Base

Loading…

Próximos Pases (próximas 24 horas)

TLE

EnvejeciendoSource: Space-Track

Época: Sep 8, 2026, 07:47 UTC

1 51498U 65027GJ  26251.32480084  .00000583  00000-0  19693-2 0  9998
2 51498  90.2550  14.5285 0026736 206.6933 153.2814 12.97828011536791

Sigue OPS 4682 DEB en tiempo real con AllMySat

Download on the App Store